Volver al catálogo

FENGYUN 1C DEB

LostSSO
NORAD 37905·DEBRIS·🇨🇳 China

Lanzado May 10, 1999 desde Taiyuan Satellite Launch Center

Loading…

Próximos Pases (próximas 24 horas)

TLE

ObsoletoSource: Space-Track

Época: Jul 27, 2024, 09:54 UTC

1 37905U 99025ENE 24209.41308617  .00001780  00000-0  13309-2 0  9990
2 37905  99.2515 270.8648 0129479 343.3740  16.3194 13.92171136537371

Sigue FENGYUN 1C DEB en tiempo real con AllMySat

Download on the App Store